Reflectivity
-20 -20 -20 -20 -20 -20 -20 -20 -20 -20 -20 -20 -20 -20 -20 -20 -20 -20 -20 -20 -20 -20 -20 -20 -20 -20 -20 -20 -20 -20 -20 -20 -20 -20 -20 -20 -20 -20 -20 -20 -20 7 -1 -20 -20 -20 -18 -17 10
-20 -20 -20 -20 -20 -20 -20 -20 -20 -20 -20 -20 -20 -20 -20 -20 -20 -20 -20 -20 -20 -20 -20 -20 -20 -20 -20 -20 -20 -20 -20 -20 -20 -20 -20 -20 -20 -20 -20 -20 -20 -20 -20 -20 -20 -20 -20 -20 -17
-20 -20 -20 -20 -20 -20 -20 -20 -20 -20 -20 -20 -20 -20 -20 -20 -20 -20 -20 -20 -20 -8 -20 -20 5 -20 -20 -20 -20 -20 -20 -20 -20 -20 -20 -20 -20 -20 -20 -20 -20 -20 5 -8 -20 -20 -20 -20 -20
-20 -20 -20 -20 -20 -20 -20 -19 -20 -20 -20 -20 -20 -20 -20 -20 -20 -20 -20 -20 -20 -20 -13 17 -20 -20 -20 -20 -20 -20 -20 -20 -20 -20 -20 -20 -20 -20 -20 -20 -20 -20 -20 -12 -20 -20 -20 -20 -20
-20 -20 -20 -20 -20 -20 -20 -20 -20 -20 -20 -20 -20 -20 -20 -20 -20 -17 -20 -20 -20 -20 -5 -9 -0 -20 -20 -20 -20 -20 -20 -20 -7 -20 -12 -18 -16 -20 -17 -20 -20 -20 -20 -20 -11 3 3 -20 -20
-20 -20 -20 -20 -20 -20 -20 -20 -20 -20 -20 -20 -20 -20 -20 -20 -20 -20 -20 -20 -18 -20 -20 -20 -20 -20 -20 -20 -20 -20 -20 -20 -20 -20 -20 -16 18 -6 -20 -20 -20 -20 -20 -20 -20 -20 -17 -11 -20
-20 -20 -20 -20 -20 -20 -20 -20 -20 -20 -20 -20 -20 -20 -20 -20 -20 -20 -20 -20 -20 -20 -20 -20 -20 -20 -20 -20 -20 -20 -20 -20 -20 -20 -20 -20 -20 -20 -20 -20 -20 -19 19 15 -20 -20 -15 -20 -14
-20 -20 -20 -20 -20 -20 -20 -20 -20 -20 -20 -20 -20 -20 -20 -20 -20 -20 -20 -20 -20 -20 -20 -20 -20 -20 -20 -20 -20 -20 -20 -20 -20 -20 -20 -20 -20 -20 -20 -20 -20 -20 -18 2 7 -15 -19 -7 -6
-20 -20 -20 -20 -20 -20 -20 -20 -20 -20 -20 -20 -20 -20 -20 -20 -20 -20 -20 -20 -20 -20 -20 -20 -20 -20 -20 -20 -20 -20 -20 -20 -20 -20 -20 -20 -20 -20 -20 -20 -20 -20 -20 -13 -7 1 -3 13 12
-20 -20 -20 -20 -20 -20 -20 -20 -20 -20 -20 -20 -20 -20 -20 -20 -20 -20 -20 -20 -20 -20 -20 -20 -20 -20 -20 -20 -20 -20 -20 -20 -20 -20 -20 -20 -20 -20 -20 -20 -20 -20 -20 -20 -20 -20 -20 -20 -7
-20 -20 -20 -20 -20 -20 -20 -20 -20 -20 -20 -20 -20 -20 -20 -20 -20 -20 -20 -20 -20 -20 -20 -20 -20 -20 -20 -20 -20 -20 -20 -20 -20 -20 -20 -20 -20 -20 -20 -20 -20 -20 -20 -20 -20 -20 -20 -20 -20
-20 -20 -20 -20 -20 -20 -20 -20 -20 -20 -20 -20 -20 -20 -20 -20 -20 -20 -20 -20 -20 -20 -20 -20 -20 -20 -20 -20 -20 -20 -20 -20 -20 -20 -20 -20 -20 -20 -20 -20 -20 -20 -20 -20 -20 -20 -20 -20 -20
-20 -20 -20 -20 -20 -20 -20 -20 -20 -20 -20 -20 -20 -20 -20 -20 -20 -20 -20 -20 -20 -20 -20 -20 -20 -20 -20 -20 -20 -20 -20 -20 -20 -20 -20 -20 -20 -20 -20 -20 -20 -20 -20 -20 -20 -20 -20 -20 -20
-20 -20 -20 -20 -20 -20 -20 -20 -20 -20 -20 -20 -20 -20 -20 -20 -20 -20 -20 -20 -20 -20 -20 -20 -20 -20 -20 -20 -20 -20 -20 -20 -20 -20 -20 -20 -20 -20 -20 -20 -20 -20 -20 -20 -20 -20 -20 -20 -20
-20 -20 -20 -20 -20 -20 -20 -20 -20 -20 -20 -20 -20 -20 -20 -20 -20 -20 -20 -20 -20 -20 -20 -20 -20 -20 -20 -20 -20 -20 -20 -20 -20 -20 -20 -20 -20 -20 -20 -20 -20 -20 -20 -20 -20 -20 -20 -20 -20
-20 -20 -20 -20 -20 -20 -20 -20 -20 -20 -20 -20 -20 -20 -20 -20 -20 -20 -20 -20 -20 -20 -20 -20 -20 -20 -20 -20 -20 -20 -20 -20 -20 -20 -20 -20 -20 -20 -20 -20 -20 -20 -20 -20 -20 -20 -20 -20 -20
-20 -20 -20 -20 -20 -20 -20 -20 -20 -20 -20 -20 -20 -20 -20 -20 -20 -20 -20 -20 -20 -20 -20 -20 -20 -20 -20 -20 -20 -20 -20 -20 -20 -20 -20 -20 -20 -20 -20 -20 -20 -20 -20 -20 -20 -20 -20 -20 -20
-20 -20 -20 -20 -20 -20 -20 -20 -20 -20 -20 -20 -20 -20 -20 -20 -20 -20 -20 -20 -20 -20 -20 -20 -20 -20 -20 -20 -20 -20 -20 -20 -20 -20 -20 -20 -20 -20 -20 -20 -20 -20 -20 -20 -20 -20 -20 -20 -20
-20 -20 -20 -20 -20 -20 -20 -20 -20 -20 -20 -20 -20 -20 -20 -20 -20 -20 -20 -20 -20 -20 -20 -20 -20 -20 -20 -20 -20 -20 -20 -20 -20 -20 -20 -20 -20 -20 -20 -20 -20 -20 -20 -20 -20 -20 -20 -20 -20
-20 -20 -20 -20 -20 -20 -20 -20 -20 -20 -20 -20 -20 -20 -20 -20 -20 -20 -20 -20 -20 -20 -20 -20 -20 -20 -20 -20 -20 -20 -20 -20 -20 -20 -20 -20 -20 -20 -20 -20 -20 -20 -20 -20 -20 -20 -20 -20 -20
-20 -20 -20 -20 -20 -20 -20 -20 -20 -20 -20 -20 -20 -20 -20 -20 -20 -20 -20 -20 -20 -20 -20 -20 -20 -20 -20 -20 -20 -20 -20 -20 -20 -20 -20 -20 -20 -20 -20 -20 -20 -20 0 -20 -20 -20 -20 -20 -20
-20 -20 -20 -20 -20 -20 -20 -20 -20 -20 -20 -20 -20 -20 -20 -20 -20 -20 -20 -20 -20 -20 -20 -20 -20 -20 -20 -20 -20 -20 -20 -20 -20 -20 -20 -20 -20 -20 -20 -20 -20 -16 1 -20 -20 -10 -17 -20 -20
-20 -20 -20 -20 -20 -20 -20 -20 -20 -20 -20 -20 -20 -20 -20 -20 -20 -20 -20 -20 -20 -20 -20 -20 -20 -20 -20 -20 -20 -20 -20 -20 -20 -20 -20 -20 -20 -20 -20 -20 -20 -20 -20 -11 -18 -17 9 1 1
-20 -20 -20 -20 -20 -20 -20 -20 -20 -20 -20 -20 -20 -20 -20 -20 -20 -20 -20 -20 -20 -20 -20 -20 -20 -20 -20 -20 -20 -20 -20 -20 -20 -20 -20 -20 -20 -20 -20 -20 -20 -20 -20 -20 -2 12 8 9 7
-20 -20 -20 -20 -20 -20 -20 -20 -20 -20 -20 -20 -20 -20 -20 -20 -20 -20 -20 -20 -20 -20 -20 -20 -20 -20 -20 -20 -20 -20 -20 -20 -20 -20 -20 -20 -20 -20 -20 -20 -20 -20 -20 -20 -16 -6 10 0 10
-20 -20 -20 -20 -20 -20 -20 -20 -20 -20 -20 -20 -20 -20 -20 -20 -20 -20 -20 -20 -20 -20 -20 -20 -20 -20 -20 -20 -20 -20 -20 -20 -20 -20 -20 -20 -20 -20 -20 -20 -20 -20 -20 -20 -20 -15 -2 3 1
-20 -20 -20 -20 -20 -20 -20 -20 -20 -20 -20 -20 -20 -20 -20 -20 -20 -20 -20 -20 -20 -20 -20 -20 -20 -20 -20 -20 -20 -20 -20 -20 -20 -20 -20 -20 -20 -20 -20 -20 -20 -20 -20 -20 -20 -20 -20 -20 -8
-20 -20 -20 -20 -20 -20 -20 -20 -20 -20 -20 -20 -20 -20 -20 -20 -20 -20 -20 -20 -20 -20 -20 -20 -20 -20 -20 -20 -20 -20 -20 -20 -20 -20 -20 -20 -20 -20 -20 -20 -20 -20 -20 -20 -20 -20 -20 -20 -20
-20 -20 -20 -20 -20 -20 -20 -20 -20 -20 -20 -20 -20 -20 -20 -20 -20 -20 -20 -20 -20 -20 -20 -20 -20 -20 -20 -20 -20 -20 -20 -20 -20 -20 -20 -20 -20 -20 -20 -20 -20 -20 -20 -20 -20 -20 -20 -20 -20
-20 -20 -20 -20 -20 -20 -20 -20 -20 -20 -20 -20 -20 -20 -20 -20 -20 -20 -20 -20 -20 -20 -20 -20 -20 -20 -20 -20 -20 -20 -20 -20 -20 -20 -20 -20 -20 -20 -20 -20 -20 -20 -20 -20 -20 -20 -20 -20 -20
Wind_Speed
5 4 3 5 4 5 3 6 2 1 2 3 2 4 9 4 1 4 3 5 9 9 6 7 10 9 8 7 6 5 4 4 3 3 2 2 2 2 3 5 7 9 4 2 1 2 3 2 3
3 2 4 3 6 3 6 4 4 5 5 8 6 4 6 4 1 4 4 7 8 9 7 6 9 8 7 6 5 3 3 2 1 1 0 1 2 3 3 5 6 8 3 3 3 0 2 4 2
3 2 3 5 4 6 5 5 4 2 7 1 5 6 4 4 2 3 1 9 8 7 7 6 9 8 7 5 4 2 2 2 2 2 2 3 4 4 5 5 5 6 4 4 3 2 2 3 2
3 3 5 5 6 6 5 2 3 6 1 5 6 8 3 3 3 1 6 8 8 6 6 8 8 6 5 3 3 2 3 3 4 5 5 6 6 6 7 6 5 6 6 6 5 5 4 5 6
3 3 4 2 5 4 4 3 5 5 4 3 1 5 2 3 3 6 7 7 9 6 5 4 8 6 5 4 2 1 2 4 5 6 7 8 9 9 8 8 7 7 7 7 9 9 8 7 8
4 4 4 4 4 4 1 4 4 3 2 4 6 6 2 1 3 4 8 8 6 7 6 6 7 7 6 4 3 4 4 5 6 7 8 10 9 10 10 10 9 9 10 10 11 12 12 10 10
6 5 6 5 5 3 3 4 6 5 5 3 7 5 2 3 3 6 8 8 7 7 6 6 6 6 8 7 7 8 8 7 7 8 10 10 10 10 12 12 13 13 14 13 12 13 13 13 12
5 5 5 5 6 4 3 3 4 4 2 2 2 6 6 5 7 6 7 7 7 6 6 5 5 6 6 6 10 9 10 9 8 10 11 10 9 9 9 10 10 14 15 14 14 13 14 14 14
3 5 3 6 6 3 1 4 2 2 5 3 3 3 1 11 8 6 5 4 5 4 5 5 5 5 5 5 6 9 10 11 10 9 10 7 5 6 7 8 11 12 14 14 14 14 14 13 11
5 4 5 2 2 2 2 3 6 4 2 4 3 5 9 10 6 8 6 5 3 3 3 4 4 5 5 4 5 5 5 5 5 6 6 5 5 5 6 7 10 12 13 13 14 14 12 9 4
2 3 1 2 2 4 2 3 1 9 1 5 7 8 8 7 6 7 5 5 6 3 2 2 3 3 4 4 3 3 3 4 4 6 5 5 4 4 4 4 4 4 6 4 6 7 4 6 4
6 2 2 5 5 2 2 2 4 3 1 1 8 10 6 7 7 7 6 6 5 5 4 3 2 2 3 2 3 3 3 3 4 5 6 4 3 4 4 3 4 4 3 5 5 4 6 6 6
4 2 4 4 6 6 4 4 2 1 6 3 8 6 7 6 6 5 5 5 5 5 5 4 3 2 2 4 3 3 4 4 4 4 5 4 4 4 4 4 4 4 3 3 4 4 4 5 6
3 5 3 6 7 6 4 3 1 1 3 7 8 8 7 8 9 3 5 6 7 6 6 4 3 2 2 2 2 2 3 3 4 4 4 5 4 4 4 4 4 4 4 4 4 4 4 5 4
3 6 5 10 7 5 4 4 2 2 3 5 6 6 7 8 5 8 8 8 8 5 5 6 4 3 1 2 2 2 2 3 3 4 5 5 5 4 5 4 4 4 4 5 4 5 4 4 4
6 6 4 5 7 5 5 6 2 3 7 8 6 5 6 7 8 8 7 7 7 5 7 5 4 4 1 2 2 2 3 3 3 4 4 5 5 5 5 4 4 4 4 4 4 4 4 4 4
8 4 3 2 4 2 3 4 3 2 5 7 6 7 8 8 9 9 8 8 7 7 7 5 5 3 2 3 2 2 3 2 3 3 3 5 4 5 4 4 4 5 4 4 4 3 2 3 4
4 6 2 4 2 2 1 8 6 3 4 8 8 8 8 8 12 8 8 6 6 6 6 6 4 3 2 2 2 2 2 2 2 3 3 5 4 5 4 4 4 4 4 5 5 4 3 3 4
6 5 5 1 1 2 3 7 9 8 4 8 10 8 9 10 8 7 6 7 7 5 6 6 5 3 1 1 1 1 3 2 2 3 5 5 5 5 4 3 4 4 4 5 5 4 3 3 3
5 7 2 1 3 2 5 12 8 5 6 6 8 9 10 6 6 6 5 7 8 7 7 5 5 4 3 2 1 2 2 3 3 3 4 5 5 5 5 3 4 5 4 5 5 4 3 2 3
5 6 3 2 4 3 6 8 5 3 3 5 5 6 5 8 8 5 5 6 5 6 7 6 6 5 3 4 1 0 1 2 2 2 3 4 5 5 5 5 5 5 2 3 4 4 4 3 3
5 2 3 4 4 3 4 6 4 4 5 3 7 6 4 5 4 2 3 5 6 6 4 5 5 5 5 5 3 3 2 2 3 2 3 5 5 5 5 5 5 6 5 4 4 4 2 2 2
4 2 4 3 5 4 8 6 9 4 2 4 7 7 4 5 3 1 3 5 5 5 6 6 6 6 6 6 6 4 4 4 3 3 5 5 5 5 5 5 5 4 3 4 6 5 4 2 2
4 5 7 5 3 4 4 6 8 2 2 5 4 5 2 2 3 2 2 2 4 4 5 5 5 7 7 6 7 7 7 6 5 4 4 4 3 4 5 5 5 5 4 4 4 5 5 5 3
6 6 4 6 6 6 2 3 12 4 4 4 8 8 5 2 2 3 5 4 5 6 7 6 7 9 7 7 7 7 8 7 8 7 4 5 3 2 5 4 4 4 5 4 5 5 5 5 3
3 4 7 6 3 5 3 6 9 5 6 5 7 6 2 3 4 6 7 7 7 7 7 7 7 9 6 7 8 7 8 5 6 6 5 4 4 4 4 5 5 5 6 4 3 4 4 4 3
1 3 3 8 1 4 3 9 9 4 4 5 6 2 5 7 7 7 7 6 7 7 8 6 7 8 8 8 7 8 7 7 8 8 6 5 5 4 6 6 5 5 5 4 4 3 4 3 3
3 4 5 4 2 4 6 6 8 4 1 5 5 5 6 5 6 6 6 6 5 6 6 6 6 8 8 8 7 7 7 7 7 6 8 8 7 6 6 6 6 5 5 5 5 4 3 4 4
2 1 4 3 4 5 2 9 8 6 4 1 2 4 5 7 6 6 6 5 5 4 4 5 4 6 7 6 6 7 7 7 6 6 7 7 6 6 6 6 6 6 5 5 5 5 5 5 5
2 5 6 6 5 2 4 11 3 6 6 3 3 5 6 6 6 5 5 5 6 7 7 6 6 6 6 6 7 7 7 6 6 7 7 6 8 6 7 6 6 6 6 6 6 6 5 6 6
Wind_Direction
274 354 351 35 70 61 252 251 243 142 76 349 91 125 126 57 134 180 234 140 132 139 143 145 149 146 140 134 131 126 117 109 102 98 87 70 40 354 357 353 345 334 210 192 129 47 7 139 141
70 329 27 83 98 110 263 255 220 200 151 146 76 54 50 72 79 106 99 124 125 137 141 142 148 152 150 148 148 145 138 127 126 113 47 315 315 323 323 326 332 338 281 179 174 106 358 7 187
97 40 95 115 126 186 220 214 214 138 151 133 101 44 71 119 74 120 59 114 119 123 141 152 151 158 159 163 167 182 213 245 264 276 282 289 299 304 308 312 320 332 340 187 198 214 278 299 279
136 23 29 113 189 242 207 236 169 110 74 49 103 72 56 314 308 146 103 108 108 110 119 148 139 143 149 160 183 227 264 285 285 276 277 279 283 290 295 300 300 302 305 272 242 243 254 267 271
45 65 75 129 205 259 252 226 161 142 122 115 84 151 60 347 23 100 101 101 110 88 82 96 113 107 103 95 81 26 330 322 306 298 294 287 288 289 297 289 284 284 286 283 265 260 256 262 266
63 102 96 189 219 229 219 146 140 91 72 153 89 106 147 344 111 90 98 89 79 88 66 67 67 74 68 60 44 25 5 348 341 333 323 313 315 313 308 303 295 285 273 270 268 267 267 259 261
116 99 179 161 195 171 173 96 122 131 113 67 140 90 137 175 155 107 97 90 83 81 75 62 53 46 36 26 24 17 357 347 343 340 339 334 325 319 315 314 311 301 288 278 264 260 262 261 260
108 89 130 199 178 190 167 89 126 93 106 100 103 160 182 195 146 99 82 85 84 75 68 62 50 43 35 31 32 21 10 358 358 3 3 351 337 333 327 328 326 319 306 293 277 266 264 262 255
122 70 172 191 161 168 149 115 29 36 100 62 7 141 219 124 122 101 93 71 69 62 52 51 46 38 28 42 28 24 22 24 22 12 356 353 354 352 350 346 350 351 357 353 340 320 296 270 259
86 106 202 162 288 198 144 100 142 103 65 42 50 25 105 123 142 138 143 142 117 107 54 53 51 39 32 25 23 17 12 13 15 9 1 353 345 341 346 344 345 347 346 345 343 343 339 332 282
126 135 321 356 262 248 120 91 58 125 47 201 173 150 139 141 151 158 161 173 171 149 112 85 71 45 43 31 12 10 6 0 357 356 356 346 345 341 343 333 339 340 349 345 342 340 339 335 318
95 48 2 352 327 125 91 98 65 2 184 146 155 142 133 157 175 179 177 187 177 165 170 155 117 76 48 41 26 5 11 359 352 343 350 359 347 342 336 333 333 342 340 337 339 331 323 321 317
86 129 57 349 46 52 77 45 123 70 345 87 124 125 164 176 192 194 194 191 173 178 190 190 161 126 69 43 12 6 358 354 340 346 343 353 345 334 327 326 332 330 328 324 319 315 312 314 312
113 87 54 22 23 44 79 16 77 292 41 110 147 180 189 197 200 185 189 201 199 190 197 190 187 157 82 51 15 353 351 339 348 348 350 359 358 343 340 333 325 321 327 313 306 299 298 298 305
112 70 35 18 355 32 330 339 239 132 129 150 191 199 210 223 203 216 212 207 195 200 193 191 188 163 67 32 7 17 353 9 13 355 350 353 356 351 342 330 325 314 318 316 316 310 303 300 304
63 50 70 342 6 349 66 269 249 172 163 209 222 235 240 245 232 233 221 213 199 187 188 189 179 167 123 52 25 12 41 17 349 341 337 339 341 351 340 330 325 314 318 315 318 310 308 303 296
16 127 100 47 40 325 78 268 305 146 175 236 248 253 252 261 260 246 228 219 199 192 172 180 187 183 110 43 33 39 15 7 337 336 325 322 331 338 339 315 314 320 325 322 322 314 288 302 304
162 107 59 130 323 21 306 263 286 283 214 249 265 261 261 261 251 249 230 211 189 175 178 181 179 155 80 46 18 354 335 341 333 336 320 332 320 323 342 317 326 0 341 335 335 312 309 261 284
127 102 113 325 340 358 273 281 274 272 269 265 261 266 259 257 275 258 230 187 168 178 177 178 170 180 124 59 10 0 317 316 310 327 330 327 324 327 334 334 338 353 343 330 331 315 330 316 331
83 111 65 333 18 80 357 289 274 274 250 240 258 265 256 255 263 273 217 189 183 174 185 185 193 191 182 157 188 187 235 271 270 299 319 324 335 336 317 335 334 321 343 347 338 353 324 293 348
32 110 135 116 359 69 330 306 354 354 329 352 346 279 268 256 267 256 198 197 173 178 188 194 206 209 209 195 158 280 280 307 329 319 315 326 320 324 325 337 318 304 5 331 322 326 2 319 311
88 324 90 58 77 212 17 270 308 339 316 346 357 342 343 357 14 29 154 156 180 204 203 218 221 221 226 200 198 208 209 261 244 259 274 300 309 308 306 309 321 319 317 316 303 324 331 320 329
146 70 72 78 86 58 351 67 269 331 14 341 344 356 350 349 349 66 151 175 205 208 215 223 228 237 242 220 215 212 236 234 258 272 287 297 301 305 305 316 325 299 310 297 306 308 313 288 297
136 68 42 54 67 35 330 110 286 227 180 309 306 324 314 314 342 291 266 236 240 237 236 242 247 255 253 245 239 232 243 255 270 270 274 277 277 289 293 296 298 295 282 296 300 297 295 291 259
67 60 1 1 11 219 318 36 242 262 271 266 296 300 301 307 288 276 258 249 248 244 242 239 233 254 249 251 249 241 244 242 247 252 253 274 274 264 280 280 282 288 282 298 303 299 290 294 300
62 122 148 200 196 261 335 240 257 211 287 289 291 261 258 272 270 262 255 249 250 249 247 247 251 264 260 256 257 243 244 237 240 240 237 246 251 239 242 265 268 286 285 281 299 297 292 303 290
45 52 144 102 61 44 245 290 300 297 271 355 9 345 300 292 284 281 280 259 268 275 272 265 276 273 266 257 255 252 242 235 243 241 229 238 240 252 253 249 250 270 283 270 282 275 288 297 293
67 156 57 0 138 269 295 277 242 297 282 4 3 350 331 326 321 316 311 314 307 294 293 294 272 268 275 271 252 257 249 242 244 242 240 231 236 232 242 254 255 269 274 277 273 268 284 304 286
102 94 65 119 131 172 290 267 214 197 173 165 289 305 310 307 303 308 328 325 319 314 311 301 300 290 294 286 281 267 263 250 245 239 242 238 243 234 235 235 237 239 253 261 273 276 277 271 271
209 185 155 130 222 210 153 270 213 194 179 147 50 338 318 310 302 334 337 327 336 332 328 319 316 312 305 305 307 293 281 268 254 251 250 239 239 226 231 237 243 244 241 245 243 251 256 257 265